Location: Kikino
(54.4440°N, 112.0940°W)
Time: 18:16:15
(UTC+00:00)

A-11 Canister half - Pass Details

Date: 20 May 2024
Orbit: 1525 x 1683 km, 47.3° (Epoch: 12 June)

Event Time Altitude Azimuth Distance (km) Brightness Sun altitude
Rises 03:41:18 0° 186° (S) 4,680 11.2 -1.5°
Reaches altitude 10° 03:45:37 10° 168° (SSE) 3,720 10.6 -2.0°
Maximum altitude 03:51:16 18° 130° (SE) 3,173 10.1 -2.7°
Drops below altitude 10° 03:57:01 10° 93° (E) 3,798 10.6 -3.3°
Sets 04:01:27 0° 76° (ENE) 4,817 11.3 -3.7°
